Showing default

CHEOPS, 44874

Orbit data source: Space-Track

CHEOPS, 44874 is a payload satellite owned by ESA (ESA) in SSO that was launched on Wed, 18 Dec 2019 UTC via a SOYUZ-ST-A launch vehicle from the French Guiana (FRGUI). Payloads include a variety of satellites, spacecraft, and rockets equipped with specific instruments for various scientific and technological missions. These include communications satellites like Starlink; space stations such as the ISS; scientific satellites like the Hubble; Earth observation satellites from companies like Planet Labs, Umbra, and HawkEye 360; GPS; miniature CubeSats for education and research; and military/defense satellites.

Loading next visibility...
CHEOPS details
Identifier
44874, 2019-092B
Orbit
SSO
Last TLE update15 hours ago
Origin
Flag of ESAESA (ESA)
ManufacturerAirbus Barajas
MissionOperational Civil Astronomy
Bus & MotorSEOSAT, AOCS
Mass273 kg wet, 273 kg dry
Launch date (UTC)
2019-12-18 (5 years ago)
Launch vehicle
SOYUZ-ST-A
Launch site
French Guiana (FRGUI)
Object type
Payload
Rocket body
Debris
Shape & HBRHex Cyl + 1 Pan, Unknown HBR
Radar Cross Section2.624 m², Large (>1 m²)

Expand to show TLE details & history

TLE from 15 hours ago
0 CHEOPS
1 44874U 19092B   24339.79352557  .00001165  00000-0  24608-3 0  9998
2 44874  98.1494 165.0074 0011749  54.3080 305.9212 14.61158371264189
Epoch: 2024-12-04T19:02Z
Definitive object data (Epoch: 2024-12-04T19:02:40.609Z)
Latitude-0.00007°
Longitude165.25463°
Altitude687.558 km
Speed7.515 km/s
True Right ascension11h 00m 01s
True Declination0° 00' 00"
Sunlit
Object was in daylight at TLE epoch
Visualization TLE readout
Latitude-37.55165°
Longitude172.14061°
Altitude703.732 km
Speed7.503 km/s
Apparent Right ascension15h 04m 13s
Apparent Declination-58° 41' 10"
Sunlit
Object is in daylight
Visualization observer readout
Local Sidereal Time07:38:04
Azimuth137.783° SSE
Elevation-43.99°
Doppler factor1
Orbital elements
Apogee altitude694.814 km
Perigee altitude678.213 km
Semi-major axis7,064.651 km
Eccentricity0.0011749
Inclination98.1494°
RAAN165.0074°
Arg. of periapsis54.308°
True anomaly305.81208°
Mean anomaly305.9212°
Eccentric anomaly305.86665°
Mean motion3.65517 °/min
BSTAR0.00024608
Orbital period98.49 mins
Loading maneuver chart data...
Loading historical data...
Loading historical data...
Loading historical data...
Loading historical data...
Loading historical data...
Loading historical data...
Loading historical data...

CHEOPS Visibility forecast

Observer location: undefined°, undefined

Span
Click to sort rows by Start time (UTC) header in descending order
Start Az.
Max El. time (UTC)
Max El. Az.
Max El.
End time (UTC)
End Az.
6 mins2024-12-05 11:37:48.617Z113.501° SE2024-12-05 11:40:48.617Z65.161° ENE22.165°2024-12-05 11:43:48.617Z19.127° NNE
6 mins2024-12-05 13:15:48.617Z216.399° SW2024-12-05 13:17:48.617Z257.389° W28.17°2024-12-05 13:21:48.617Z324.728° NNW
7 mins2024-12-06 01:12:48.617Z24.611° NE2024-12-06 01:15:48.617Z89.214° E41.241°2024-12-06 01:19:48.617Z180.038° SSW
|